METEOR 2-17 DEB, 38286

Orbit data source: Space-Track

METEOR 2-17 DEB, 38286 is space debris in LEO originally from a launch on Sat, 30 Jan 1988 UTC launched from the Plesetsk Missile And Space Complex (PKMTR). Debris objects in space refer to the collection of defunct objects orbiting the Earth. Examples of debris include non-operational satellites, rocket bodies, and fragments generated from explosions, collisions, or faulty payload assembly.

Loading next visibility...
Identifier
38286, 1988-005AP
Orbit
LEO
Country
Flag of CISCIS
Related business
Manufacturer
Unknown
Mission
Spacecraft
Bus & Motor
Unknown
Mass
Unknown
Launch date (UTC)
1988-01-30 (38 years ago)
Launch vehicle
Unknown
Launch site
Plesetsk Missile And Space Complex (PKMTR)
Object type
Payload
Rocket body
Debris
Shape & HBR
Unknown shape, 0.1 m
Radar Cross Section
Small (<0.1 m²)

Expand to show TLE details & history
Last TLE update: 6 days ago

TLE from 6 days ago
0 METEOR 2-17 DEB
1 38286U 88005AP  25302.16225837  .00001399  00000-0  89906-3 0  9991
2 38286  82.5376  87.8655 0047895 204.9857 154.8996 14.02004647710207
Epoch: 2025-10-29T03:53Z
TLE epoch observation values (Epoch: 2025-10-29T03:53:39.123Z)
Latitude
0.00007°
Longitude
-8.28686°
Altitude
921.334 km
Speed
7.375 km/s
True Right ascension
05h 51m 27s
True Declination
0° 00' 00"
Sunlit
Object was in full shadow at epoch
Visualization orbit readout
Latitude
Unknown
Longitude
Unknown
Altitude
Unknown
Speed
Unknown
Apparent Right ascension
Unknown
Apparent Declination
Unknown
Sunlit
N/A
Visualization observer readout
Local Sidereal Time
15:05:05
Azimuth
Unknown
Elevation
Unknown
Doppler factor
Unknown
Orbital elements
Apogee altitude
918.771 km
Perigee altitude
849.207 km
Semi-major axis
7,262.126 km
Eccentricity
0.00479
Inclination
82.5376°
RAAN
87.8655°
Arg. of periapsis
204.9857°
True anomaly
155.13116°
Mean anomaly
154.8996°
Eccentric anomaly
155.01551°
Mean motion
3.50709 °/min
Orbital period
102.65 mins
BSTAR
0.00089906
Loading maneuver chart data...
Computing Atmospheric mass density...
Loading historical data...
Loading historical data...
Loading historical data...
Loading historical data...
Loading historical data...
Loading historical data...
Loading historical data...

Documentation

Showing up to 5 results
|